[[{"header":{"parameterUnit":"m.s-1","parameterCategory":1,"la1":30.2991,"la2":30.254,"lo1":-89.0895,"lo2":-89.0444,"dy":0.0017,"dx":0.0017,"nx":28,"ny":28,"refTime":"2023-10-22T21:00:00:Z","depth":0,"parameterNumber":2,"parameterNumberName":"U-component_of_WINDS"},"data":[0,0,0,0,0,0,0,0,0,0,0,0,0,0,0,0,0,0,0,0,0,0,0,0,0,0,0,0,0,0,0,0,0,0,0,0,0,0,0,0,0,0,0,0,0,0,0,0,0,0,0,0,0,0,0,0,0,0,0.1398,0.1399,0,0.1476,0.1477,0.1478,0.1487,0.1486,0.1485,0.1484,0.1567,0.157,0.1573,0,0,0,0,0,0,0,0,0,0,0,0,0,0.1257,0.126,0.1398,0.1399,0.14,0.1476,0.1477,0.1478,0.1487,0.1486,0.1485,0.1484,0.1566,0.157,0.1574,0,0,0,0,0,0,0,0,0,0,0,0,0,0.1325,0.1261,0.1398,0.1413,0.1415,0.1476,0.1477,0.1479,0.1487,0.1486,0.1485,0.1484,0.1565,0.157,0.1574,0.1625,0,0,0.1588,0.1589,0,0,0,0,0,0,0,0,0.1321,0.1331,0.141,0.1412,0.1415,0.147,0.1458,0.1528,0.1487,0.146,0.1484,0.1483,0.1536,0.1543,0.1561,0.1629,0.1633,0.1588,0.1591,0.1593,0.1594,0,0,0,0,0,0,0,0.1317,0.1327,0.1429,0.1411,0.1414,0.1417,0.1425,0.1471,0.1504,0.1462,0.1463,0.1472,0.1537,0.1556,0.1563,0.1634,0.1588,0.1592,0.1594,0.1596,0.1749,0.1751,0,0,0,0,0,0,0.1309,0.1323,0.1426,0.1431,0.1364,0.142,0.143,0.1454,0.1503,0.151,0.1473,0.1472,0.1549,0.1557,0.1565,0.1629,0.1592,0.1597,0.1599,0.1748,0.175,0.1751,0,0,0,0,0,0,0.1306,0.1318,0.1423,0.1377,0.1391,0.1424,0.1451,0.1456,0.1475,0.1512,0.1518,0.1486,0.1549,0.1559,0.161,0.1632,0.1599,0.1603,0.1746,0.1749,0.1751,0.1757,0,0,0,0,0,0,0.1302,0.1317,0.1336,0.1378,0.1393,0.1466,0.1452,0.1458,0.1482,0.1482,0.1525,0.1532,0.1548,0.1604,0.1615,0.1638,0.1606,0.1745,0.1747,0.175,0.1755,0.1759,0.1763,0,0,0,0,0,0.1297,0.1335,0.1337,0.135,0.1418,0.1467,0.1476,0.1494,0.1484,0.1504,0.1528,0.153,0.1628,0.1609,0.1621,0.1646,0.1743,0.1747,0.175,0.1753,0.1758,0.1763,0,0,0,0,0,0,0.1296,0.1341,0.1344,0.1397,0.1428,0.1469,0.1495,0.1499,0.1535,0.1533,0.1554,0.1564,0.1614,0.1635,0.1613,0.1699,0.1685,0.1691,0.1683,0.1688,0.1692,0.1686,0.161,0,0,0,0,0,0.1302,0.1338,0.1375,0.1419,0.1434,0.1461,0.1484,0.1494,0.1528,0.1542,0.1569,0.1603,0.1641,0.1666,0.1703,0.1758,0.1768,0.1781,0.1785,0.1788,0.1793,0.1824,0.1831,0.1762,0.1762,0.1762,0,0,0.1315,0.1344,0.1365,0.1419,0.1445,0.1482,0.1473,0.1512,0.154,0.1548,0.1598,0.1619,0.1658,0.1711,0.1736,0.173,0.1814,0.1792,0.1794,0.1798,0.1828,0.1835,0.184,0.1764,0.1764,0.1763,0,0,0.1358,0.1383,0.1422,0.1448,0.1486,0.1504,0.1513,0.1553,0.1568,0.1618,0.1625,0.1658,0.1724,0.1751,0.1773,0.1826,0.183,0.1838,0.1858,0.1888,0.1893,0.1898,0.1918,0.1924,0.1842,0.1842,0.1842,0,0.137,0.1425,0.1442,0.1481,0.1505,0.1513,0.1553,0.1577,0.1626,0.1643,0.1635,0.1717,0.1744,0.1804,0.1816,0.1834,0.1846,0.1833,0.1891,0.1896,0.1901,0.192,0.1927,0.1843,0.1843,0.1843,0.1843,0,0.1437,0.1475,0.1502,0.1549,0.1575,0.1615,0.1638,0.1664,0.1672,0.1691,0.1742,0.1774,0.1818,0.1833,0.1842,0.1895,0.189,0.1886,0.1873,0.1908,0.1926,0.1933,0.1844,0.1844,0.1844,0.1843,0,0,0.1483,0.1537,0.1547,0.1568,0.1611,0.1641,0.1681,0.1723,0.1745,0.1778,0.1813,0.1868,0.1865,0.189,0.1902,0.1929,0.1969,0.1922,0.1923,0.193,0.203,0.2032,0.204,0.1971,0.1973,0.1974,0.2026,0,0.1531,0.1601,0.1618,0.1679,0.1714,0.1722,0.1757,0.1788,0.1807,0.184,0.1861,0.19,0.1893,0.1908,0.1934,0.1958,0.1989,0.1955,0.2005,0.2006,0.1995,0.205,0.2053,0.2101,0.2034,0.2035,0.2036,0,0.1596,0.163,0.1694,0.1733,0.1748,0.1779,0.1819,0.1851,0.1886,0.1898,0.1926,0.1936,0.1978,0.1962,0.2022,0.1998,0.2019,0.2034,0.2036,0.2042,0.2024,0.2058,0.2117,0.2124,0.2047,0.2046,0.2045,0,0.1623,0.1685,0.1732,0.175,0.1795,0.1817,0.1837,0.1871,0.1895,0.193,0.1946,0.1986,0.2009,0.204,0.206,0.2046,0.2118,0.2103,0.213,0.213,0.2146,0.2144,0.2209,0.2158,0.2158,0.2158,0.2158,0,0.1676,0.1715,0.1745,0.1773,0.1818,0.1836,0.188,0.19,0.193,0.1964,0.1973,0.2005,0.2029,0.2064,0.208,0.2127,0.2137,0.2149,0.2153,0.2148,0.2147,0.2163,0.2161,0.216,0.2159,0.2159,0.2159,0,0.1714,0.1735,0.1787,0.1825,0.1836,0.1867,0.1901,0.1929,0.1948,0.199,0.2001,0.2031,0.2073,0.2096,0.2148,0.2159,0.2212,0.2214,0.22,0.2202,0.2227,0.2225,0.2305,0.2317,0.2258,0.2258,0.2259,0,0.1746,0.1776,0.1818,0.1841,0.1861,0.1897,0.1922,0.1941,0.1967,0.2009,0.2033,0.2074,0.2109,0.2175,0.2202,0.2243,0.2246,0.2272,0.2252,0.2247,0.2247,0.2246,0.2249,0.2275,0.2276,0.2276,0.2277,0,0.1801,0.181,0.1845,0.1883,0.1912,0.1944,0.1975,0.1993,0.2018,0.2046,0.2088,0.2115,0.2168,0.221,0.2253,0.2274,0.228,0.2282,0.2291,0.2287,0.2278,0.2284,0.221,0.2281,0.228,0.228,0.228,0.2279,0.1838,0.1865,0.1899,0.1937,0.1962,0.1991,0.202,0.2042,0.2077,0.2121,0.2131,0.2176,0.221,0.2268,0.2291,0.2326,0.2322,0.2334,0.2337,0.234,0.2341,0.2271,0.2334,0.2334,0.2334,0.2334,0.2334,0,0.1894,0.1915,0.1951,0.1994,0.2024,0.2025,0.206,0.2086,0.2125,0.2156,0.219,0.2238,0.2279,0.2309,0.235,0.2373,0.2377,0.2384,0.2383,0.2388,0.2343,0.2331,0.238,0.238,0.238,0.238,0.238,0.238,0.1926,0.1973,0.1986,0.2045,0.2067,0.211,0.213,0.2157,0.2182,0.2236,0.2269,0.2288,0.2319,0.2363,0.24,0.2408,0.2423,0.243,0.2438,0.2396,0.2391,0.2386,0.2376,0.2433,0.2433,0.248,0.2481,0.2481]},{"header":{"parameterUnit":"m.s-1","parameterCategory":1,"la1":30.2991,"la2":30.254,"lo1":-89.0895,"lo2":-89.0444,"dy":0.0017,"dx":0.0017,"nx":28,"ny":28,"refTime":"2023-10-22T21:00:00:Z","depth":0,"parameterNumber":3,"parameterNumberName":"V-component_of_WINDS"},"data":[0,0,0,0,0,0,0,0,0,0,0,0,0,0,0,0,0,0,0,0,0,0,0,0,0,0,0,0,0,0,0,0,0,0,0,0,0,0,0,0,0,0,0,0,0,0,0,0,0,0,0,0,0,0,0,0,0,0,1.2059,1.2059,0,1.2034,1.2034,1.2034,1.1999,1.1999,1.1998,1.1998,1.1971,1.1971,1.197,0,0,0,0,0,0,0,0,0,0,0,0,0,1.2076,1.2076,1.2059,1.2059,1.2058,1.2034,1.2034,1.2034,1.1999,1.1999,1.1998,1.1997,1.1971,1.1971,1.197,0,0,0,0,0,0,0,0,0,0,0,0,0,1.2062,1.2076,1.2059,1.2038,1.2036,1.2034,1.2034,1.2033,1.1999,1.1999,1.1998,1.1997,1.1971,1.1971,1.197,1.1986,0,0,1.197,1.1969,0,0,0,0,0,0,0,0,1.2063,1.2061,1.2042,1.204,1.2038,1.2019,1.203,1.2018,1.2,1.2013,1.1998,1.1996,1.1987,1.1986,1.1983,1.1985,1.1984,1.197,1.1969,1.1969,1.1969,0,0,0,0,0,0,0,1.2064,1.2062,1.2049,1.2042,1.2039,1.203,1.2027,1.2028,1.2006,1.2012,1.201,1.2007,1.1986,1.1983,1.1982,1.1983,1.197,1.1969,1.1969,1.1969,1.1998,1.1999,0,0,0,0,0,0,1.2068,1.2063,1.205,1.2048,1.2048,1.2031,1.2027,1.2026,1.2005,1.2002,1.2008,1.2006,1.1984,1.1982,1.1981,1.1999,1.1969,1.1969,1.1969,1.1997,1.1999,1.2,0,0,0,0,0,0,1.2068,1.2067,1.2051,1.2055,1.2052,1.2031,1.203,1.2026,1.2023,1.2002,1.1998,1.2009,1.1983,1.1981,1.1986,1.1998,1.1969,1.1969,1.1996,1.1998,1.1999,1.2035,0,0,0,0,0,0,1.2069,1.2067,1.2073,1.2056,1.2052,1.2056,1.2031,1.2026,1.2023,1.202,1.2002,1.1999,1.1983,1.1986,1.1985,1.1997,1.1969,1.1995,1.1997,1.1999,1.2033,1.2038,1.2042,0,0,0,0,0,1.207,1.2084,1.2074,1.2072,1.2059,1.2057,1.2055,1.2037,1.2024,1.203,1.2017,1.1999,1.1996,1.1987,1.1986,1.1997,1.1994,1.1996,1.1999,1.2031,1.2037,1.2042,0,0,0,0,0,0,1.2103,1.2081,1.207,1.2078,1.207,1.2051,1.2058,1.2043,1.2038,1.2035,1.2012,1.2008,1.2016,1.2007,1.1996,1.2012,1.1993,1.1995,1.2018,1.2023,1.2028,1.203,1.1968,0,0,0,0,0,1.2111,1.2112,1.2092,1.2102,1.2098,1.2079,1.2077,1.2064,1.2054,1.205,1.2037,1.2028,1.2025,1.2023,1.2019,1.2031,1.2028,1.2039,1.2043,1.2047,1.2049,1.2056,1.2061,1.2006,1.2006,1.2006,0,0,1.2129,1.2117,1.2118,1.2108,1.21,1.2101,1.2076,1.2078,1.2078,1.205,1.2054,1.2044,1.2032,1.2041,1.2044,1.2033,1.2063,1.205,1.2053,1.2053,1.2059,1.2064,1.2068,1.2008,1.2008,1.2007,0,0,1.2161,1.2151,1.2159,1.2152,1.214,1.2127,1.2129,1.2113,1.2105,1.2109,1.2088,1.2088,1.2083,1.2076,1.2072,1.2103,1.2087,1.2102,1.2125,1.2132,1.2137,1.214,1.2152,1.2157,1.2104,1.2104,1.2104,0,1.2184,1.2184,1.2165,1.2168,1.2165,1.214,1.2148,1.2141,1.2129,1.2127,1.2116,1.211,1.21,1.2107,1.2115,1.2112,1.2114,1.2104,1.2138,1.2141,1.2144,1.2156,1.216,1.2106,1.2106,1.2105,1.2105,0,1.2213,1.2214,1.2222,1.2211,1.2209,1.2214,1.2196,1.2195,1.2182,1.2171,1.2175,1.2163,1.2156,1.2157,1.2144,1.2162,1.2157,1.2142,1.2122,1.2152,1.2162,1.2166,1.2109,1.2108,1.2107,1.2107,0,0,1.2266,1.2245,1.2248,1.2244,1.2229,1.2229,1.2234,1.2229,1.2229,1.2221,1.2225,1.2222,1.2209,1.2204,1.219,1.2196,1.2223,1.2181,1.218,1.219,1.2244,1.2256,1.2261,1.2212,1.2213,1.2213,1.2245,0,1.2296,1.2303,1.2286,1.2297,1.2298,1.2275,1.2279,1.2271,1.2261,1.226,1.2248,1.2247,1.2229,1.2226,1.2231,1.2219,1.2234,1.2216,1.2216,1.2216,1.2221,1.2266,1.2279,1.2309,1.2249,1.225,1.225,0,1.2331,1.2327,1.2339,1.2325,1.2324,1.2329,1.2323,1.2322,1.2313,1.2305,1.23,1.2284,1.2288,1.2269,1.2274,1.2263,1.2262,1.2256,1.2257,1.2256,1.2236,1.2268,1.2319,1.2324,1.2256,1.2256,1.2255,0,1.237,1.2366,1.2373,1.237,1.2353,1.2357,1.235,1.234,1.2338,1.2333,1.2332,1.2327,1.2324,1.2321,1.2304,1.2292,1.2312,1.2291,1.2306,1.2307,1.2312,1.2312,1.2364,1.231,1.231,1.231,1.231,0,1.2405,1.2414,1.239,1.2395,1.2404,1.2384,1.2393,1.2384,1.2375,1.2378,1.2357,1.236,1.2337,1.2337,1.2324,1.2332,1.233,1.2324,1.2321,1.2327,1.2328,1.2326,1.2324,1.2311,1.2311,1.2311,1.231,0,1.245,1.2434,1.2441,1.2425,1.2421,1.2429,1.2415,1.2419,1.2407,1.2411,1.241,1.2392,1.2392,1.2375,1.237,1.2361,1.2374,1.2366,1.2378,1.2376,1.2392,1.2391,1.2446,1.2452,1.2393,1.2394,1.2394,0,1.2474,1.248,1.2466,1.2466,1.2461,1.2461,1.246,1.2441,1.244,1.243,1.2435,1.2433,1.243,1.2431,1.2417,1.2414,1.2406,1.2426,1.2406,1.2412,1.2408,1.2408,1.241,1.243,1.2431,1.2431,1.2432,0,1.2519,1.2512,1.251,1.2507,1.2506,1.2502,1.2496,1.2498,1.2477,1.2477,1.2477,1.2475,1.2471,1.247,1.2464,1.2457,1.2442,1.2438,1.2442,1.2448,1.2455,1.2453,1.2391,1.2437,1.2437,1.2436,1.2436,1.2436,1.2555,1.256,1.2551,1.255,1.2545,1.2541,1.2544,1.2533,1.2532,1.2528,1.2517,1.2519,1.251,1.2501,1.2496,1.2497,1.2487,1.2492,1.2493,1.2495,1.2499,1.2455,1.2495,1.2495,1.2495,1.2495,1.2495,0,1.26,1.2594,1.2593,1.2587,1.2587,1.2573,1.2566,1.2567,1.2569,1.2562,1.2561,1.2561,1.2559,1.2546,1.2544,1.2547,1.254,1.2547,1.2547,1.2546,1.2507,1.2505,1.2553,1.2553,1.2553,1.2553,1.2553,1.2553,1.2624,1.2632,1.2623,1.2628,1.2621,1.2623,1.2621,1.2618,1.2612,1.2614,1.2613,1.2604,1.2595,1.2592,1.259,1.2586,1.2587,1.2597,1.2591,1.2554,1.2549,1.2543,1.2541,1.2597,1.2597,1.263,1.263,1.2631]}]]